{"data":{"norad_id":68860,"epoch":"2026-09-20T04:26:06.972288Z","epoch_age_seconds":42703,"freshness":"FRESH","line1":"1 68860U 26094X   26263.18480292  .00017343  00000+0  53806-3 0  9994","line2":"2 68860  97.2837 276.3758 0002143  90.5058 269.6430 15.33456620 22617","mean_motion":15.3345662,"eccentricity":0.0002143,"inclination_deg":97.2837,"raan_deg":276.3758,"arg_perigee_deg":90.5058,"mean_anomaly_deg":269.643,"bstar":0.00053806,"rev_number":2261,"period_min":93.905493068333,"perigee_km":464.04200849936,"apogee_km":466.97519500427,"semimajor_km":6843.6456017518,"source":"CELESTRAK","updated_at":"2026-09-20T09:00:44.044680Z"}}